N209D CYWG-CYWG

Flight info

Callsign N209D
Flight time N/A
Altitude 3000
Route UDE
Aircraft C172/L-SFG/C

Departure

Time 2026-05-06 01:59
Airport Winnipeg / James Armstrong Richardson International Airport (CYWG)

Arrival

Time N/A
Airport Winnipeg / James Armstrong Richardson International Airport (CYWG)
Time Latitude Longitude Altitude Speed Heading
2026-05-06 01:49 49.90102 -97.23047 780 ft 0 kts 220°
2026-05-06 01:55 49.90083 -97.23063 780 ft 9 kts 218°
2026-05-06 01:56 49.90017 -97.23052 778 ft 12 kts 139°
2026-05-06 01:56 49.89951 -97.22963 776 ft 13 kts 139°
2026-05-06 01:56 49.89907 -97.22901 776 ft 0 kts 130°
2026-05-06 01:56 49.89894 -97.22878 776 ft 11 kts 133°
2026-05-06 01:57 49.89814 -97.22733 775 ft 22 kts 130°
2026-05-06 01:57 49.89750 -97.22615 777 ft 8 kts 130°
2026-05-06 01:57 49.89718 -97.22557 777 ft 6 kts 134°
2026-05-06 01:57 49.89687 -97.22510 777 ft 5 kts 140°
2026-05-06 01:58 49.89653 -97.22572 776 ft 14 kts 229°
2026-05-06 01:58 49.89566 -97.22728 774 ft 19 kts 229°
2026-05-06 01:58 49.89599 -97.22903 772 ft 34 kts 318°
2026-05-06 01:58 49.89900 -97.23316 778 ft 77 kts 318°
2026-05-06 01:59 49.90319 -97.23924 948 ft 85 kts 315°
2026-05-06 01:59 49.90788 -97.24554 1103 ft 94 kts 316°
2026-05-06 01:59 49.91155 -97.25364 1329 ft 93 kts 292°
2026-05-06 01:59 49.91399 -97.26312 1479 ft 100 kts 291°
2026-05-06 02:00 49.91538 -97.27389 1627 ft 102 kts 271°
2026-05-06 02:00 49.91297 -97.28383 1714 ft 104 kts 229°
2026-05-06 02:00 49.90690 -97.28778 1670 ft 97 kts 175°
2026-05-06 02:00 49.90136 -97.28264 1590 ft 96 kts 118°
2026-05-06 02:01 49.89895 -97.27296 1523 ft 95 kts 104°
2026-05-06 02:01 49.89665 -97.26325 1442 ft 98 kts 118°
2026-05-06 02:01 49.89293 -97.25440 1448 ft 100 kts 127°
2026-05-06 02:01 49.88887 -97.24518 1433 ft 109 kts 124°
2026-05-06 02:02 49.88453 -97.23510 1353 ft 119 kts 128°
2026-05-06 02:02 49.87987 -97.22569 1291 ft 100 kts 129°
2026-05-06 02:02 49.87600 -97.21753 1212 ft 88 kts 112°
2026-05-06 02:02 49.87486 -97.20897 1159 ft 81 kts 76°
2026-05-06 02:03 49.87869 -97.20359 1182 ft 75 kts 14°
2026-05-06 02:03 49.88278 -97.20745 1089 ft 84 kts 301°
2026-05-06 02:03 49.88621 -97.21530 963 ft 88 kts 314°
2026-05-06 02:03 49.89040 -97.22145 872 ft 83 kts 317°
2026-05-06 02:04 49.89482 -97.22744 808 ft 84 kts 319°
2026-05-06 02:04 49.89911 -97.23326 778 ft 75 kts 320°
2026-05-06 02:04 49.90329 -97.23889 829 ft 88 kts 319°
2026-05-06 02:04 49.90788 -97.24536 1046 ft 88 kts 316°
2026-05-06 02:05 49.91211 -97.25201 1303 ft 83 kts 311°
2026-05-06 02:05 49.91505 -97.25921 1529 ft 82 kts 265°
2026-05-06 02:05 49.91134 -97.26724 1562 ft 103 kts 216°
2026-05-06 02:05 49.90488 -97.27126 1639 ft 96 kts 206°
2026-05-06 02:06 49.89918 -97.27699 1638 ft 93 kts 216°
2026-05-06 02:06 49.89325 -97.27936 1622 ft 93 kts 173°
2026-05-06 02:06 49.88721 -97.27550 1628 ft 92 kts 146°
2026-05-06 02:06 49.88230 -97.26826 1569 ft 103 kts 123°
2026-05-06 02:07 49.87938 -97.25867 1482 ft 96 kts 114°
2026-05-06 02:07 49.87661 -97.24909 1373 ft 97 kts 114°
2026-05-06 02:07 49.87430 -97.23977 1371 ft 89 kts 109°
2026-05-06 02:07 49.87270 -97.23079 1349 ft 89 kts 98°
2026-05-06 02:08 49.87334 -97.22137 1307 ft 90 kts 69°
2026-05-06 02:08 49.87663 -97.21356 1276 ft 85 kts 23°
2026-05-06 02:08 49.88213 -97.21458 1106 ft 84 kts 339°
2026-05-06 02:08 49.88778 -97.21894 933 ft 92 kts 328°
2026-05-06 02:09 49.89256 -97.22453 830 ft 79 kts 321°
2026-05-06 02:09 49.89656 -97.22981 787 ft 74 kts 319°
2026-05-06 02:09 49.90082 -97.23563 844 ft 90 kts 317°
2026-05-06 02:09 49.90555 -97.24235 1060 ft 91 kts 317°
2026-05-06 02:10 49.91012 -97.24920 1276 ft 93 kts 312°
2026-05-06 02:10 49.91355 -97.25788 1226 ft 113 kts 304°
2026-05-06 02:10 49.91920 -97.26068 1401 ft 83 kts